FW7873 Weather Reports


Display with metric or nautical units.
time (UTC)temp
F
wind
direction
speed
MPH
gust
MPH
rain 1hr
in
rain 24hr
in
rain mn
in
humidity
%
barometer
mb
20260507234602 52 263 1.0 7.0 0.00 0.00 0.00 50 1011.6
20260507233055 52 0 2.0 9.0 0.00 0.00 0.00 49 1011.7
20260507231555 52 274 3.0 9.0 0.00 0.00 0.00 48 1011.8
20260507230105 53 316 3.0 10.0 0.00 0.00 0.00 46 1011.7
20260507224557 54 298 2.0 13.0 0.00 0.00 0.00 46 1011.9
20260507223057 54 309 6.0 16.0 0.00 0.00 0.00 44 1011.9
20260507221600 54 338 5.0 13.0 0.00 0.00 0.00 45 1011.9
20260507220057 54 319 2.0 12.0 0.00 0.00 0.00 45 1012.0
20260507214557 54 294 4.0 9.0 0.00 0.00 0.00 46 1012.0
20260507213101 53 327 4.0 12.0 0.00 0.00 0.00 45 1012.0
20260507211601 54 273 2.0 11.0 0.00 0.00 0.00 46 1011.9
20260507210057 55 337 5.0 17.0 0.00 0.00 0.00 43 1012.0
20260507204601 56 309 3.0 11.0 0.00 0.00 0.00 43 1012.1
20260507203058 55 334 6.0 18.0 0.00 0.00 0.00 43 1012.1
20260507201604 54 360 4.0 17.0 0.00 0.00 0.00 48 1012.3
20260507200059 54 317 9.0 18.0 0.00 0.00 0.00 44 1012.2
20260507194608 54 360 5.0 12.0 0.00 0.00 0.00 45 1012.4
20260507193056 55 355 4.0 17.0 0.00 0.00 0.00 42 1012.3
20260507191615 56 315 6.0 21.0 0.00 0.00 0.00 41 1012.5
20260507190055 56 49 6.0 12.0 0.00 0.00 0.00 43 1012.5
20260507184608 54 315 3.0 16.0 0.00 0.00 0.00 45 1012.5
20260507183108 56 41 3.0 14.0 0.00 0.00 0.00 49 1012.7
20260507181612 53 355 7.0 18.0 0.00 0.00 0.00 47 1012.7
20260507180111 53 268 6.0 18.0 0.00 0.00 0.00 46 1012.8
20260507174610 54 311 3.0 16.0 0.00 0.00 0.00 48 1012.9
20260507173110 55 282 7.0 16.0 0.00 0.00 0.00 45 1013.1
20260507171609 53 360 5.0 15.0 0.00 0.00 0.00 51 1013.2
20260507170112 53 281 5.0 12.0 0.00 0.00 0.00 48 1013.4
20260507164638 54 209 4.0 14.0 0.00 0.00 0.00 53 1013.4
20260507163101 51 325 4.0 13.0 0.00 0.00 0.00 51 1013.4
20260507161606 51 306 3.0 14.0 0.00 0.00 0.00 51 1013.4
20260507160057 52 254 3.0 11.0 0.00 0.00 0.00 51 1013.4
20260507154556 52 360 3.0 15.0 0.00 0.00 0.00 52 1013.6
20260507153057 52 242 6.0 14.0 0.00 0.00 0.00 52 1013.3
20260507151556 51 304 4.0 13.0 0.00 0.00 0.00 52 1013.4
20260507150058 51 234 4.0 11.0 0.00 0.00 0.00 53 1013.4
20260507144600 51 317 4.0 12.0 0.00 0.00 0.00 54 1013.4
20260507143110 50 310 4.0 12.0 0.00 0.00 0.00 54 1013.4
20260507141618 50 306 2.0 9.0 0.00 0.00 0.00 56 1013.3
20260507140104 49 297 2.0 7.0 0.00 0.00 0.00 57 1013.3
20260507134617 49 262 2.0 8.0 0.00 0.00 0.00 59 1013.5
20260507133110 48 302 2.0 7.0 0.00 0.00 0.00 62 1013.6
20260507131612 46 327 1.0 5.0 0.00 0.00 0.00 66 1013.6
20260507130104 45 360 1.0 7.0 0.00 0.00 0.00 67 1013.6
20260507124558 43 0 1.0 4.0 0.00 0.00 0.00 72 1013.7
20260507123112 41 331 1.0 4.0 0.00 0.00 0.00 77 1013.5
20260507121557 40 360 0.0 3.0 0.00 0.00 0.00 80 1013.4
20260507120058 39 0 0.0 4.0 0.00 0.00 0.00 83 1013.4
20260507114600 37 360 2.0 5.0 0.00 0.00 0.00 85 1013.5
20260507113057 36 0 0.0 3.0 0.00 0.00 0.00 85 1013.3
20260507111559 36 274 0.0 3.0 0.00 0.00 0.00 85 1013.2
20260507110057 36 281 1.0 3.0 0.00 0.00 0.00 84 1013.2
20260507104601 36 0 0.0 2.0 0.00 0.00 0.00 83 1013.1
20260507103057 36 0 0.0 0.0 0.00 0.00 0.00 82 1013.0
20260507101557 37 0 0.0 0.0 0.00 0.00 0.00 80 1012.7
20260507100101 37 0 0.0 0.0 0.00 0.00 0.00 79 1012.8
20260507094557 38 0 0.0 0.0 0.00 0.00 0.00 78 1012.8
20260507093059 39 0 0.0 0.0 0.00 0.00 0.00 76 1012.8
20260507091601 40 0 0.0 0.0 0.00 0.00 0.00 76 1012.9
20260507084557 40 0 0.0 2.0 0.00 0.00 0.00 74 1013.1
20260507083058 40 0 0.0 1.0 0.00 0.00 0.00 73 1013.2
20260507081557 40 0 0.0 2.0 0.00 0.00 0.00 72 1013.2
20260507080116 40 0 0.0 1.0 0.00 0.00 0.00 71 1013.1
20260507074559 41 0 0.0 3.0 0.00 0.00 0.00 71 1013.1
20260507073057 41 301 1.0 4.0 0.00 0.00 0.00 71 1013.1
20260507071555 41 0 0.0 1.0 0.00 0.00 0.00 70 1013.1
20260507070104 42 329 0.0 5.0 0.00 0.00 0.00 69 1013.2
20260507064629 42 0 0.0 3.0 0.00 0.00 0.00 70 1013.3
20260507063112 43 285 1.0 3.0 0.00 0.00 0.00 69 1013.4
20260507061559 43 0 0.0 3.0 0.00 0.00 0.00 67 1013.4
20260507060113 43 0 0.0 1.0 0.00 0.00 0.00 65 1013.3
20260507054607 44 0 0.0 1.0 0.00 0.00 0.00 64 1013.4
20260507053107 44 0 0.0 1.0 0.00 0.00 0.00 63 1013.5
20260507051606 44 0 0.0 1.0 0.00 0.00 0.00 63 1013.5
20260507050055 45 265 0.0 1.0 0.00 0.00 0.00 62 1013.6
20260507044559 45 0 0.0 1.0 0.00 0.00 0.00 61 1013.5
20260507043059 45 0 0.0 2.0 0.00 0.00 0.00 60 1013.6
20260507041556 45 241 0.0 1.0 0.00 0.00 0.00 59 1013.6
20260507040058 45 360 0.0 2.0 0.00 0.00 0.00 59 1013.6
20260507034555 46 0 0.0 2.0 0.00 0.00 0.00 59 1013.7
20260507033057 46 0 0.0 1.0 0.00 0.00 0.00 59 1013.8
20260507031558 46 0 0.0 3.0 0.00 0.00 0.00 59 1013.9
20260507030057 47 0 0.0 2.0 0.00 0.00 0.00 58 1013.8
20260507024555 47 0 0.0 2.0 0.00 0.00 0.00 56 1014.0
20260507023055 47 0 0.0 3.0 0.00 0.00 0.00 54 1014.0
20260507021556 48 277 0.0 3.0 0.00 0.00 0.00 53 1013.9
20260507020118 48 0 0.0 4.0 0.00 0.00 0.00 51 1013.8
20260507014601 49 267 1.0 6.0 0.00 0.00 0.00 50 1013.6
20260507013056 49 286 0.0 6.0 0.00 0.00 0.00 50 1013.6
20260507011557 49 9 1.0 10.0 0.00 0.00 0.00 51 1013.4
20260507010110 49 263 1.0 7.0 0.00 0.00 0.00 51 1013.6
20260507004557 49 258 1.0 6.0 0.00 0.00 0.00 52 1013.5
20260507003058 49 0 1.0 7.0 0.00 0.00 0.00 53 1013.4
20260507001605 50 282 0.0 2.0 0.00 0.00 0.00 52 1013.1
20260507000059 50 0 0.0 3.0 0.00 0.00 0.00 51 1013.1